Weather in Shardonem'

Russia / Arkhangel'skaya Oblast'     63°54′19″N   44°35′43″E
temp.,
°C
wind,
m/s
gust,
m/s
humid.,
%
clouds,
%
prec.,
mm/h
press.,
hPa
HPBL,
m
5 march, fri
fri500:00−19nw249892 0.1 996140
03:00−18nw259793 0.1 998233
06:00−17nnw269798 0.2 998239
09:00−16n369391 0.3 1000402
12:00−15nnw3588100 0.1 1002595
15:00−15nnw3588100 0.1 1004609
18:00−17nnw2695100 0.1 1006329
21:00−21nnw239893 0.1 100756
6 march, sat
sat600:00−22nw229885 0.0 100834
03:00−22wnw229884 0.1 100938
06:00−23wnw129998 0.0 100920
09:00−21wsw129895 0.0 100995
12:00−16wsw238891 0.0 1008365
15:00−13wsw249095 0.0 1007414
18:00−15ssw229799 0.1 100620
21:00−18s239768 0.1 100426
7 march, sun
sun700:00−17se359799 0.1 1003123
03:00−17se369798 0.1 1002148
06:00−19se379685 0.0 1001184
09:00−17se489249 0.0 1001263
12:00−12ese478927 0.0 1000388
15:00−10ese478446 0.0 1001562
18:00−14ene389283 0.0 1002215
21:00−17ene399584 0.0 1003202
8 march, mon
mon800:00−20ne379626 0.0 1004136
03:00−21ne389615 0.0 1006217
06:00−23ne379781 0.0 1007218
09:00−22nne369590 0.0 1008292
12:00−20nne469183 0.0 1009409
15:00−20nne488985 0.0 1010477
18:00−24n399592 0.0 1012350
21:00−28n379685 0.0 1014233
9 march, tue
tue900:00−32n25970 0.0 1015113
03:00−33n25981 0.0 1016112
06:00−35n249718 0.0 101778
09:00−31n24948 0.0 1018219
12:00−27n249120 0.0 1019338
15:00−24nnw248929 0.0 1020367
18:00−28nnw22964 0.0 102119
21:00−28wnw119519 0.0 102119